Tracking 30107 objects as of 18-Jan-2025
HD Live streaming from Space Station
objects crossing your sky now

FENGYUN 1C DEB

Track FENGYUN 1C DEB now!
10-day predictions


NORAD ID: 45527
Int'l Code: 1999-025EYS
Perigee: 786.3 km
Apogee: 868.5 km
Inclination: 98.8 °
Period: 101.3 minutes
Semi major axis: 7198 km
RCS: Unknown
Launch date: May 10, 1999
Source: People's Republic of China (PRC)
Launch site: Taiyaun Space Center, China (TSC)

Note: This is SATELLITE DEBRIS
Your satellite tracking list
Your tracking list is empty




NASA's NSSDC Master Catalog

Two Line Element Set (TLE):
1 45527U 99025EYS 25015.63259356  .00004122  00000-0  18710-2 0  9998
2 45527  98.7608  84.3273 0057092 106.1900 254.5570 14.21512315348705
Source of the keplerian elements: AFSPC